Regional Weather Roundup
Issued by NWS

Home | Current Version | Previous Version | Graphics & Text | Print | Product List | Glossary On
Versions: 1 2 3 4 5 6 7 8 9 10 11 12 13 14 15 16 17 18 19 20 21 22 23 24 25 26 27 28 29 30 31 32 33 34 35 36 37 38 39 40 41 42 43 44 45 46 47 48 49 50
000
ASUS43 KBIS 290510
RWRND

NORTH DAKOTA REGIONAL WEATHER ROUNDUP
NATIONAL WEATHER SERVICE BISMARCK ND
1200 AM CDT SUN MAY 29 2016

NOTE: "FAIR" INDICATES FEW OR NO CLOUDS BELOW 12,000 FEET WITH NO
SIGNIFICANT WEATHER AND/OR OBSTRUCTIONS TO VISIBILITY.


NDZ001>003-009>011-017-290600-
NORTHWEST NORTH DAKOTA

CITY           SKY/WX    TMP DP  RH WIND       PRES   REMARKS
WILLISTON      CLEAR     49  47  93 CALM      29.96R
MINOT          CLOUDY    59  56  89 N9        29.93S
MINOT AFB      CLOUDY    56  54  91 SE5       29.92F
$$

NDZ018>021-031>035-040>046-290600-
SOUTHWEST NORTH DAKOTA

CITY           SKY/WX    TMP DP  RH WIND       PRES   REMARKS
BISMARCK       CLEAR     56  55  97 W5        29.95R
DICKINSON      CLEAR     48  47  96 SW3       29.96F FOG
GARRISON         N/A     55  53  93 NW9       29.94S
HETTINGER ARPT CLEAR     46  45  96 W5        30.01R
$$

NDZ004>008-012>016-024-026-027-054-290600-
NORTHEAST NORTH DAKOTA

CITY           SKY/WX    TMP DP  RH WIND       PRES   REMARKS
GRAND FORKS    MOCLDY    60  59  96 NW5       29.85F
GRND FRKS AFB  CLOUDY    59  59 100 NW5       29.86F
DEVILS LAKE    CLOUDY    57  56  96 N7        29.91S FOG
$$

NDZ022-023-025-028>030-036>039-047>053-290600-
SOUTHEAST NORTH DAKOTA

CITY           SKY/WX    TMP DP  RH WIND       PRES   REMARKS
FARGO          MOCLDY    61  58  90 N6        29.85F
JAMESTOWN      CLOUDY    59  58  96 NE5       29.89R
$$




USA.gov is the U.S. government's official web portal to all federal, state and local government web resources and services.